Location: The Saddle
(36.8333°N, 80.3417°W)
Time: 10:18:04
(UTC-05:00)

S-56A Canister/Altair - Pass Details

Date: 09 December 2023
Orbit: 640 x 2488 km, 38.9° (Epoch: 25 February)

Event Time Altitude Azimuth Distance (km) Brightness Sun altitude
Rises 14:16:45 0° 284° (WNW) 2,970 10.8 23.6°
Reaches altitude 10° 14:19:03 10° 284° (WNW) 2,025 10.0 23.4°
Maximum altitude 14:23:30 87° 196° (SSW) 665 7.7 22.9°
Drops below altitude 10° 14:28:34 10° 107° (ESE) 2,293 9.9 22.4°
Sets 14:31:18 0° 107° (ESE) 3,403 10.7 22.1°
